WGS F7 (USA 263)

Last updated on Thu Nov 21 2024 00:02:43 GMT+0000 (Coordinated Universal Time)

1 40746U 15036A 24325.21019125 .00000019 00000+0 00000+0 0 9991 2 40746 0.0108 300.2325 0000147 303.3130 66.8785 1.00271817 34107
UTC large
Height (km)
Speed (km/s)
/
Latitude / Longitude
Inclination (degrees)
Orbital Period (minutes)
Azimuth
Elevation
Range (km)
Doppler Factor

Next 0 passes for location: London (51.5072 / 0.1276)

Sorry there are no passes over London.